Dewpoint
49 49 49 49 49 48 48 48 48 47 47 47 47 47 46 47 47 47 47 47 48 50 50 50 49 48 46 42 40 43 47 54 54 53 48 45 43 42 37 34 36 33 34 34 35 34 33
49 49 49 48 48 48 48 48 48 48 47 47 47 47 46 47 47 47 47 48 49 50 51 50 49 51 43 34 42 45 49 49 48 48 45 42 44 41 37 32 32 32 32 32 33 32 33
48 48 48 48 48 48 48 48 48 47 46 47 46 46 47 47 47 47 48 49 49 50 51 52 50 51 42 39 39 32 43 47 47 48 46 44 37 40 34 28 28 28 27 27 27 28 29
48 48 48 48 47 47 48 48 47 46 46 46 46 46 46 47 47 48 49 49 50 52 52 53 51 47 40 43 44 39 29 42 43 46 48 35 24 27 27 25 23 23 24 23 25 27 29
47 47 48 47 47 48 47 47 46 46 46 46 46 46 47 47 48 49 50 49 50 51 54 51 46 44 40 28 21 20 20 25 22 21 22 19 21 21 23 22 21 23 21 22 23 26 26
47 47 47 48 47 47 46 46 46 45 46 46 46 48 48 49 48 49 49 45 47 46 48 50 50 42 42 27 19 16 16 16 17 17 16 16 19 19 20 20 20 20 21 22 21 21 23
46 46 47 47 47 46 46 46 45 45 44 47 48 48 48 48 48 48 44 38 31 27 34 27 33 35 32 28 20 16 14 14 20 17 14 17 16 18 18 20 20 20 20 20 20 21 21
46 46 47 46 46 46 46 45 45 45 44 46 47 47 48 48 47 47 38 35 35 32 33 36 36 36 35 35 33 28 15 15 15 15 17 17 15 18 19 19 18 18 18 18 20 20 20
45 46 46 45 45 45 45 45 46 45 44 45 47 47 47 46 47 41 34 31 38 41 34 32 34 34 33 31 27 30 15 14 15 14 16 16 17 19 20 19 18 18 18 18 18 20 18
45 46 46 46 45 45 44 45 44 44 46 47 47 47 47 46 35 40 34 32 34 42 28 25 33 31 17 18 16 19 20 19 18 19 16 16 17 16 19 18 19 18 21 21 20 17 17
46 45 46 45 44 44 44 43 43 44 46 47 47 47 46 45 42 36 35 31 35 41 3 27 28 20 20 17 18 14 12 12 13 14 14 17 15 18 19 19 14 14 12 15 14 16 16
45 45 46 45 43 45 45 44 44 46 46 47 46 46 45 41 39 36 34 35 39 28 12 25 24 24 20 23 20 12 10 10 12 10 12 11 11 12 12 8 9 9 11 11 12 13 14
45 45 45 43 45 45 45 45 45 45 45 45 45 44 43 40 34 35 35 38 25 19 23 23 19 18 22 21 21 16 13 10 15 14 18 19 9 7 9 10 7 9 14 14 13 14 16
45 44 44 45 45 45 45 45 44 42 43 44 44 43 38 37 37 34 34 30 17 22 20 21 16 19 20 17 20 21 21 22 23 19 20 19 17 10 8 11 12 9 15 15 11 10 11
44 45 45 44 44 44 44 45 43 41 43 43 41 37 37 36 32 35 27 16 17 20 16 16 18 15 18 18 16 19 22 26 28 28 23 23 21 11 9 9 19 21 18 27 21 22 16
44 45 44 44 45 44 44 45 44 41 41 42 37 36 35 34 34 34 24 20 17 16 17 20 18 16 14 19 16 19 20 26 27 30 31 25 20 18 12 22 21 26 22 19 21 13 11
45 45 45 45 45 46 46 45 45 41 40 40 35 31 30 32 35 31 21 24 16 17 16 15 16 15 17 18 17 17 22 23 27 26 30 24 24 21 10 19 22 23 22 22 21 19 12
45 45 45 45 46 45 44 44 44 40 39 40 35 25 28 33 23 20 19 21 20 17 17 15 16 16 19 18 14 17 20 20 25 22 20 22 22 17 20 26 29 26 23 24 17 14 14
45 45 44 44 44 44 41 40 41 40 39 39 31 29 32 30 22 22 23 19 21 20 17 16 14 18 20 17 14 19 21 24 22 16 15 19 17 13 15 20 23 21 22 23 20 19 14
45 43 42 40 41 40 40 39 39 39 41 38 32 24 26 26 27 22 22 19 21 21 26 24 21 19 17 18 19 18 12 20 23 15 17 21 18 13 10 15 19 16 21 21 15 12 13
45 41 37 38 39 40 39 38 38 40 41 36 32 27 29 19 21 22 25 22 20 20 26 24 21 18 16 14 15 14 14 16 17 18 19 17 11 16 15 14 16 16 14 15 16 14 10
40 39 38 39 39 39 39 39 39 39 40 37 30 28 31 26 26 25 23 21 21 23 23 21 22 21 22 18 15 11 14 16 16 16 16 19 11 16 12 12 11 13 12 12 13 15 13
39 39 39 40 39 38 39 39 39 39 40 36 35 35 30 25 25 23 22 23 22 25 21 26 25 24 21 22 23 20 18 19 19 19 17 18 14 13 5 16 13 8 10 10 11 11 10
40 39 40 39 38 39 40 40 41 40 40 38 37 34 28 21 24 23 25 25 24 23 23 24 28 23 27 28 26 22 22 22 23 23 22 18 15 15 7 8 2 6 10 9 9 10 13
39 38 38 39 41 41 40 40 41 40 40 39 38 34 29 21 25 25 25 24 23 23 23 25 27 28 30 22 14 10 9 12 18 20 21 22 18 12 8 7 7 13 8 8 7 9 12
39 40 41 41 41 41 40 40 40 40 39 38 37 37 33 26 24 29 24 23 21 21 19 24 26 26 24 20 16 9 6 12 8 14 21 21 21 12 10 4 4 10 6 8 6 5 16
40 41 41 41 41 41 40 40 39 40 40 39 37 39 34 27 30 28 22 23 27 25 21 22 24 22 21 17 13 12 11 17 10 11 12 14 14 10 11 8 10 17 11 13 4 7 21
39 40 41 41 40 39 39 38 39 40 39 38 37 38 35 29 28 28 30 26 26 25 20 24 20 19 18 14 15 14 13 14 13 15 15 13 11 9 9 8 6 18 16 11 15 20 19
39 40 40 38 38 37 37 38 39 40 39 38 35 38 37 28 26 31 32 30 30 28 26 24 23 22 22 18 17 17 14 14 14 8 14 12 15 13 15 15 17 22 21 23 22 21 23
Wind_Speed
21 22 22 22 22 23 24 25 26 27 29 29 30 32 33 34 35 34 33 31 26 23 20 17 11 7 3 7 14 11 9 4 21 21 25 20 16 15 19 11 19 17 23 14 22 24 19
19 20 21 22 23 24 25 26 27 29 30 31 32 34 36 37 38 38 36 31 26 23 19 13 8 8 4 12 6 8 2 4 7 18 18 18 13 17 9 9 16 5 24 29 20 22 16
19 20 21 22 24 25 27 27 28 30 31 32 34 36 36 39 39 39 37 33 31 25 17 6 7 10 9 18 5 9 0 4 2 12 11 11 4 16 6 6 7 13 21 19 15 13 12
19 20 22 24 25 26 26 27 28 31 32 33 35 36 36 37 39 39 38 35 33 20 6 2 9 7 9 7 16 14 3 4 3 5 7 4 2 6 5 5 6 4 5 12 10 18 9
19 21 22 24 25 26 27 28 29 31 32 33 36 38 39 38 37 36 35 35 16 7 5 14 8 4 8 2 3 6 6 4 5 3 2 3 3 7 6 9 9 6 11 10 7 9 10
20 21 22 24 25 26 28 28 29 31 32 34 35 36 37 39 38 35 32 25 7 4 3 8 2 4 6 3 2 2 2 5 3 5 2 4 5 8 9 15 29 19 11 6 9 6 12
21 21 23 24 25 26 27 28 30 31 33 34 35 37 37 38 40 32 22 7 10 5 6 8 8 5 6 1 1 3 3 5 4 4 10 5 10 21 23 26 15 13 12 15 3 8 7
21 22 23 24 25 26 27 28 29 30 31 33 35 36 38 39 41 18 7 7 2 7 16 14 22 19 19 8 6 5 4 8 8 12 6 3 21 18 13 16 19 19 20 25 14 18 12
21 22 23 25 25 26 27 27 29 31 32 32 32 35 36 39 38 4 3 7 9 4 8 11 7 4 3 11 6 7 12 5 6 12 13 14 10 7 18 15 18 20 23 18 20 13 9
21 21 23 24 25 27 27 28 29 31 31 31 32 33 36 39 7 10 5 9 10 6 7 5 2 2 3 5 4 2 8 5 6 12 15 13 23 19 14 15 19 21 17 21 17 10 13
21 22 23 25 26 27 27 29 30 31 30 32 34 35 33 27 9 8 7 16 9 3 8 3 3 1 2 4 2 5 2 3 8 5 4 8 3 3 18 19 10 10 5 8 5 11 6
21 23 23 24 26 26 27 28 29 29 31 32 32 37 37 13 8 11 12 14 2 1 10 2 4 5 5 3 3 4 2 1 1 4 5 13 1 1 3 3 2 9 6 4 4 2 12
22 23 24 26 27 27 27 28 29 30 31 31 32 38 33 12 6 9 11 2 4 7 9 5 7 10 6 5 3 3 5 5 6 3 5 1 3 1 2 5 2 3 9 4 5 9 13
21 23 25 26 27 28 28 27 28 30 31 31 35 36 16 13 11 9 6 1 9 2 4 5 6 15 2 10 3 5 1 3 4 3 3 4 5 5 3 3 5 10 7 11 11 11 6
23 24 25 26 28 28 30 27 27 29 31 32 29 14 13 5 8 1 5 4 4 4 4 8 12 3 2 5 10 6 3 5 5 8 5 5 5 1 2 2 5 2 8 2 3 1 3
23 24 26 27 28 28 29 29 26 29 31 32 19 13 13 6 9 2 4 6 3 3 5 4 3 6 5 9 9 9 3 6 8 9 7 4 6 4 3 3 5 3 4 4 5 7 6
25 26 28 28 29 30 31 31 25 28 30 27 9 11 7 17 2 2 2 0 4 4 3 2 3 4 4 5 5 5 5 7 10 8 9 12 3 1 4 4 6 4 4 3 2 2 6
27 27 29 31 30 28 29 31 26 28 30 10 5 8 9 12 10 3 7 10 16 14 2 2 2 1 2 3 5 3 4 4 4 3 5 8 4 4 2 4 5 4 1 4 5 4 2
28 29 30 29 26 27 32 32 29 28 26 6 10 6 9 4 6 8 10 11 7 11 10 4 4 1 2 2 3 3 1 3 3 4 4 4 4 4 2 3 5 5 1 1 6 2 2
27 28 29 30 31 28 28 29 29 27 22 3 5 6 6 5 2 7 10 11 13 10 9 2 12 3 5 4 7 3 2 1 2 3 8 2 1 4 5 4 5 3 3 3 5 3 6
26 30 30 28 28 28 27 28 28 27 21 4 2 3 3 7 8 17 9 9 20 9 4 7 6 13 9 6 3 5 0 3 3 7 0 2 3 5 10 11 6 11 12 9 8 7 5
30 27 28 27 27 27 26 27 27 26 24 1 4 5 4 7 10 8 6 4 14 9 4 7 11 13 9 6 6 7 5 3 5 3 4 1 3 3 6 11 12 11 12 12 13 8 7
26 26 27 26 26 26 26 26 26 24 17 3 4 5 4 8 5 4 3 4 16 16 10 10 16 19 7 3 9 12 13 8 8 6 7 6 6 1 5 6 7 4 11 14 8 8 11
26 26 26 26 27 28 28 26 24 22 16 2 3 3 4 9 8 12 7 9 13 13 11 14 4 3 3 3 6 6 8 10 10 13 9 4 9 6 4 1 2 2 3 5 13 7 1
27 27 28 27 28 27 26 23 21 18 16 2 3 2 2 10 8 11 10 10 15 12 4 5 6 4 6 4 3 5 4 1 3 3 9 16 7 3 4 3 4 3 5 2 2 5 7
27 28 28 28 27 25 23 21 18 15 15 2 5 3 3 5 2 6 8 9 10 5 5 3 3 6 3 2 3 3 3 4 4 4 4 1 7 10 3 2 2 3 5 6 2 4 7
27 28 28 27 25 23 20 17 16 15 14 4 1 4 3 3 2 5 6 9 5 6 3 4 5 5 4 3 4 2 2 3 5 6 4 3 4 5 2 1 2 3 10 7 3 3 5
26 27 26 25 22 20 18 16 14 13 11 3 3 9 4 1 4 7 6 7 7 6 6 4 4 3 4 4 2 3 3 3 4 5 4 4 2 2 3 1 0 5 4 3 3 2 5
25 26 23 20 18 17 16 14 14 11 10 2 3 4 4 1 1 1 3 3 4 4 5 5 4 3 2 1 1 1 2 2 2 3 5 3 2 2 1 1 1 4 6 5 3 2 3
Wind_Direction
29 24 20 16 13 10 6 3 0 356 354 351 350 347 343 339 335 331 326 323 318 315 312 307 288 261 234 233 254 296 306 136 156 188 185 184 183 194 200 211 232 237 241 247 246 249 254
26 22 16 12 10 7 3 2 359 355 352 350 348 346 342 339 336 332 328 321 316 312 308 302 257 209 212 250 265 264 269 126 153 174 183 185 208 196 219 227 207 254 238 254 254 257 254
23 18 13 10 8 4 1 1 357 354 351 350 348 346 342 339 338 334 328 322 317 307 299 290 211 179 222 249 298 329 281 212 189 187 185 197 223 190 211 241 252 259 269 265 254 247 236
19 14 11 7 4 1 359 357 356 351 350 348 345 344 342 340 338 335 327 323 320 309 292 216 178 165 244 241 249 279 242 222 214 197 221 169 181 217 215 300 324 269 252 246 224 232 226
15 12 7 3 1 359 356 355 353 349 347 347 344 341 341 341 341 337 328 325 330 48 65 131 132 176 263 304 232 239 201 197 186 161 190 171 182 205 162 208 267 226 245 229 260 216 218
11 7 3 1 359 356 354 352 350 349 345 344 341 339 338 340 340 338 328 327 328 355 87 183 251 240 253 242 182 173 162 159 164 158 140 183 208 199 182 191 224 226 226 227 218 204 227
7 2 1 359 356 354 351 349 349 348 345 342 341 339 339 339 337 337 339 360 11 337 34 251 257 266 278 313 283 214 186 155 137 144 196 202 210 218 210 215 235 247 246 251 245 238 253
2 359 357 355 354 350 349 347 348 346 344 342 338 339 340 337 336 338 11 59 140 269 298 271 255 254 253 269 267 231 160 170 180 205 176 209 239 235 225 222 230 236 247 254 267 268 250
358 356 353 351 350 349 348 347 344 344 342 339 337 337 339 336 330 29 72 51 303 260 278 292 220 210 188 178 227 230 173 174 198 217 206 210 220 236 207 223 228 237 240 253 247 263 231
353 353 351 348 347 346 346 345 344 343 338 338 337 335 336 337 344 341 287 336 321 222 296 269 231 218 132 163 235 185 185 178 204 224 219 239 250 245 224 230 219 245 241 238 240 222 243
351 349 349 346 345 344 344 344 343 341 338 337 336 332 334 337 277 306 305 330 318 176 292 112 107 123 143 216 194 206 153 152 223 206 165 228 265 211 225 230 207 244 184 196 200 210 194
347 349 345 343 342 341 341 339 339 339 340 338 335 328 327 328 294 247 326 326 151 212 246 35 61 354 348 231 226 118 164 331 217 252 230 244 204 232 173 119 169 149 111 66 68 145 228
349 346 342 342 338 337 337 338 341 341 340 337 333 322 320 307 270 304 343 357 300 218 344 8 349 328 349 284 347 178 181 195 218 237 239 263 205 150 143 150 86 177 150 195 225 202 240
344 343 339 336 334 335 337 338 338 341 337 335 333 317 310 288 268 310 338 351 230 82 352 6 317 308 136 29 349 337 21 286 42 262 214 243 255 184 171 185 181 201 208 198 219 210 204
343 336 335 335 336 338 338 335 337 339 337 341 335 308 316 288 359 19 346 249 270 2 342 316 318 335 8 12 358 354 64 18 24 10 220 215 251 187 177 135 148 182 228 65 147 146 164
334 331 333 333 333 334 333 334 332 340 338 342 333 315 306 334 340 160 195 242 311 356 326 334 305 25 330 346 354 5 284 4 348 15 345 273 242 209 154 89 44 177 145 162 206 202 206
330 333 333 330 330 331 334 333 330 340 339 341 341 330 275 347 53 61 219 117 320 328 303 281 289 300 302 332 325 313 355 49 359 344 23 2 8 218 137 204 186 164 181 195 162 163 167
332 332 332 335 337 342 348 344 333 338 339 353 347 327 303 350 339 6 28 341 337 310 264 307 10 318 270 16 300 286 359 22 326 6 10 5 329 291 54 18 84 86 106 173 189 191 112
333 340 343 341 344 342 339 334 332 334 340 342 323 280 306 352 2 353 324 314 296 331 311 17 295 217 223 190 294 259 17 272 332 29 28 348 10 307 218 150 39 63 60 74 102 70 137
338 340 343 339 338 338 341 340 339 340 345 16 300 307 309 21 134 335 341 314 319 324 316 320 261 196 260 237 223 255 249 314 283 335 325 226 207 250 275 44 37 339 336 129 103 148 160
340 340 337 340 343 341 339 336 337 338 342 25 291 302 299 297 323 312 305 291 302 304 274 276 288 230 226 219 214 240 250 11 292 312 185 151 262 253 264 274 255 263 252 217 214 173 179
340 339 339 343 339 336 328 333 337 341 343 257 254 254 224 266 275 288 288 277 325 345 279 274 232 257 218 213 254 251 249 266 249 310 199 137 257 342 291 284 256 239 245 240 228 206 189
338 337 338 335 330 327 332 335 335 343 354 292 332 334 290 294 298 261 265 302 317 321 298 259 292 282 157 196 273 261 238 230 227 209 225 190 178 52 273 7 350 252 243 228 214 194 193
336 335 331 329 328 329 333 331 330 334 345 314 273 252 298 309 320 303 303 317 310 318 294 302 339 43 37 274 295 286 274 260 236 226 191 193 181 203 248 11 269 329 9 118 114 69 137
335 333 332 331 330 332 333 333 333 333 338 320 276 318 303 294 309 326 333 317 325 321 340 333 4 359 325 9 331 343 351 27 60 188 231 222 199 228 181 183 304 3 55 339 77 33 13
337 336 334 334 333 334 336 336 339 336 338 353 277 211 220 291 313 328 334 330 316 352 332 324 332 332 14 38 45 22 331 339 345 328 36 202 212 171 153 167 197 42 11 339 129 89 353
339 340 340 338 337 339 341 340 345 340 349 3 306 247 241 262 353 19 351 314 355 297 292 319 346 0 20 48 30 340 333 332 351 319 46 46 60 120 190 359 294 331 323 326 102 156 95
341 341 342 344 348 348 347 350 352 352 2 43 39 27 335 333 22 15 339 356 341 349 358 336 329 5 23 44 15 338 340 3 333 349 355 29 70 106 100 207 199 346 329 94 146 102 104
341 343 347 349 352 352 352 354 353 2 1 46 41 10 343 56 347 22 63 64 26 342 318 337 314 307 283 88 17 1 312 345 344 1 6 44 39 350 352 108 42 1 100 86 83 128 93